DECAYED

STARLINK-2223, 47781 (Decayed)

Orbit data source: Space-Track

STARLINK-2223, 47781 was a payload satellite owned by SpaceX/Seattle (US) in LEO that was launched on Thu, 04 Mar 2021 UTC via an FALCON 9 launch vehicle from the Air Force Eastern Test Range (AFETR). Payload-class satellites include a variety of spacecraft equipped with specific instruments for various scientific and technological missions. These include communications satellites like Starlink; space stations such as the ISS; scientific satellites like the Hubble; Earth observation satellites from companies like Planet Labs, Umbra, and HawkEye 360; GPS; miniature CubeSats for education and research; and military/defense satellites.

Not visible in the next 10 days
Identifier
47781, 2021-017BM
Orbit
Decayed
Country
Flag of USUS
Related business
Manufacturer
SpaceX/Seattle
Mission
Decayed Commercial Communications
Bus & Motor
STARLINK, Unknown motor
Mass
260 kg wet, ~248 kg dry
Launch date (UTC)
2021-03-04 (5 years ago)
Launch vehicle
FALCON 9
Launch site
Air Force Eastern Test Range (AFETR)
Object type
Payload
Rocket body
Debris
Shape & HBR
Box + 1 Pan, 10.1 m
Radar Cross Section
13.562 m², Large (>1 m²)

Expand to show TLE details & history
Last TLE update: 2 years ago

TLE from 2 years ago
0 STARLINK-2223
1 47781U 21017BM  25035.85446707  .07053174  12243-4  10840-2 0  9992
2 47781  53.0309 164.9175 0005758 327.2930 175.4658 16.33297609217588
Epoch: 2025-02-04T20:30Z
TLE epoch observation values (Epoch: 2025-02-04T20:30:25.954Z)
Latitude
29.00334°
Longitude
-122.45717°
Altitude
188.992 km
Speed
7.795 km/s
True Right ascension
21h 21m 37s
True Declination
28° 50' 42"
Sunlit
Object was in daylight at epoch
Visualization orbit readout
Latitude
Unknown
Longitude
Unknown
Altitude
Unknown
Speed
Unknown
Apparent Right ascension
Unknown
Apparent Declination
Unknown
Sunlit
N/A
Visualization observer readout
Local Sidereal Time
10:29:27
Azimuth
Unknown
Elevation
Unknown
Doppler factor
Unknown
Orbital elements
Apogee altitude
187.76 km
Perigee altitude
180.204 km
Semi-major axis
6,562.119 km
Eccentricity
0.00058
Inclination
53.0309°
RAAN
164.9175°
Arg. of periapsis
327.293°
True anomaly
175.47101°
Mean anomaly
175.4658°
Eccentric anomaly
175.46841°
Mean motion
4.08298 °/min
Orbital period
88.17 mins
BSTAR
0.001084
Loading maneuver chart data...
Computing Atmospheric mass density...

Documentation

Showing up to 5 results
|